Regional Weather Roundup
Issued by NWS Little Rock, AR

Home | Current Version | Previous Version | Graphics & Text | Print | Product List | Glossary On
Versions: 1 2 3 4 5 6 7 8 9 10 11 12 13 14 15 16 17 18 19 20 21 22 23 24 25 26 27 28 29 30 31 32 33 34 35 36 37 38 39 40 41 42 43 44 45 46 47 48 49 50
000
ASUS44 KLZK 260705
RWRLZK

WEATHER ROUNDUP FOR ARKANSAS
NATIONAL WEATHER SERVICE LITTLE ROCK AR
200 AM CDT SAT JUL 26 2014

NOTE: "FAIR" INDICATES FEW OR NO CLOUDS BELOW 12,000 FEET WITH NO
SIGNIFICANT WEATHER AND/OR OBSTRUCTIONS TO VISIBILITY.

ARZ001-003-010-029-260800-
NORTHWEST ARKANSAS

CITY           SKY/WX    TMP DP  RH WIND       PRES   REMARKS
FAYETTEVILLE   CLEAR     74  71  91 SW3       29.97F
FORT SMITH     CLEAR     76  73  91 NE6       29.94S FOG
HARRISON       CLEAR     73  71  93 S8        29.98S
BENTONVILLE    CLEAR     73  70  88 S6        29.96F
ROGERS         CLEAR     75  70  84 S14       29.97F
SILOAM SPGS    CLEAR     73  64  73 S7        29.97F
HIGHFILL       CLEAR     72  71  97 S6        29.95F
$$

ARZ004-005-016-260800-
NORTH CENTRAL ARKANSAS

CITY           SKY/WX    TMP DP  RH WIND       PRES   REMARKS
BATESVILLE     CLEAR     75  72  88 S3        29.97S
FLIPPIN        CLEAR     75  70  83 S7        29.95F
MTN HOME       CLEAR     72  70  93 S5        29.95F
$$

ARZ040-041-260800-
WEST CENTRAL ARKANSAS

CITY           SKY/WX    TMP DP  RH WIND       PRES   REMARKS
MENA           CLEAR     81  73  78 CALM      30.00S HX  85
MOUNT IDA      CLEAR     71  70  96 CALM      29.97S FOG
$$

ARZ009-017-025-026-028-260800-
NORTHEAST ARKANSAS

CITY           SKY/WX    TMP DP  RH WIND       PRES   REMARKS
CORNING        FAIR      70  68  94 SW10      29.96F
JONESBORO      CLEAR     73  67  81 SW8       29.96F
NEWPORT        CLEAR     73  71  93 S8        29.97F
WALNUT RIDGE   CLEAR     72  63  73 SW6       29.96S
BLYTHEVILLE    CLEAR     72  66  81 S6        29.97F
$$

ARZ022-023-033-042-044-260800-
CENTRAL ARKANSAS

CITY           SKY/WX    TMP DP  RH WIND       PRES   REMARKS
LITTLE ROCK    CLEAR     75  70  84 CALM      29.98S
N LITTLE ROCK    N/A     75  72  91 S5        29.98S
JACKSONVILLE   CLEAR     74  72  92 CALM      29.98S
SEARCY         CLEAR     72  71  96 W5        29.99S
HOT SPRINGS    CLEAR     74  71  91 NE3       29.99S
RUSSELLVILLE   CLEAR     73  71  93 CALM      29.97S FOG
CLINTON        FAIR      70  70 100 CALM      29.99S FOG
$$

ARZ036-260800-
EAST ARKANSAS

CITY           SKY/WX    TMP DP  RH WIND       PRES   REMARKS
WEST MEMPHIS   PTCLDY    71  68  90 S5        29.97F
$$

ARZ050-053-066-070-073-260800-
SOUTHWEST ARKANSAS

CITY           SKY/WX    TMP DP  RH WIND       PRES   REMARKS
ARKADELPHIA    FAIR      75  74  97 CALM      29.98S FOG
CAMDEN         CLEAR     73  72  94 CALM      29.98S FOG
TEXARKANA      CLEAR     78  74  87 S6        29.97F
EL DORADO      CLEAR     74  73  97 CALM      29.99S
DE QUEEN       FOG       72  72 100 CALM      29.95S VSB 1/4
$$

ARZ056-057-069-260800-
SOUTHEAST ARKANSAS

CITY           SKY/WX    TMP DP  RH WIND       PRES   REMARKS
PINE BLUFF     CLEAR     72  70  93 CALM      29.98F
STUTTGART      CLEAR     75  70  83 S7        29.99S
MONTICELLO     CLEAR     75  70  84 S3        29.99S

$$




USA.gov is the U.S. government's official web portal to all federal, state and local government web resources and services.